Regional Weather Roundup
Issued by NWS Grand Forks, ND

Home | Current Version | Previous Version | Text Only | Print | Product List | Glossary Off
Versions: 1 2 3 4 5 6 7 8 9 10 11 12 13 14 15 16 17 18 19 20 21 22 23 24 25 26 27 28 29 30 31 32 33 34 35 36 37 38 39 40 41 42 43 44 45 46 47 48 49 50

000
ASUS43 KFGF 212110
RWRFGF
PRAIRIE TO PINES  WEATHER ROUNDUP
NATIONAL WEATHER SERVICE EASTERN NORTH DAKOTA/GRAND FORKS ND
400 PM CDT MON JUL 21 2014

 **SATELLITE DATA USED TO AUGMENT SKY COVER AT AUTOMATED STATIONS**
 *****  WEATHER ACROSS EASTERN NORTH DAKOTA  *****

CITY           SKY/WX    TMP DP  RH WIND       PRES   REMARKS
GRAND FORKS    CLOUDY    91  74  57 SE10      29.74F HX 100
GRAND FRKS AFB PTSUNNY   90  76  63 S10       29.75F HX 102
GRAND FRKS NWS   N/A     90 N/A N/A SE9         N/A
DEVILS LAKE    CLOUDY    84  70  61 NE18      29.76F
FARGO          PTSUNNY   91  75  59 SE22G28   29.73F HX 101
WAHPETON ARPT  CLOUDY    86  72  62 S15G23    29.76F HX  92
$$

 ***** WEATHER ACROSS CENTRAL AND WESTERN NORTH DAKOTA  *****

CITY           SKY/WX    TMP DP  RH WIND       PRES   REMARKS
BISMARCK       PTSUNNY   87  75  67 E6        29.74R HX  96
MINOT          LGT RAIN  71  65  81 NW17      29.87R
JAMESTOWN      PTSUNNY   87  76  69 E10       29.72F HX  97
MINOT AFB      CLOUDY    70  68  94 NW3       29.91R THUNDER
GARRISON         N/A     74  66  76 N13G23    29.83R
WILLISTON      CLOUDY    75  64  68 N16       29.90R
DICKINSON      LGT RAIN  68  66  93 N13G25    29.81F
HETTINGER      MOSUNNY   77  64  64 N23G33    29.80R
$$

 *****  OTHER AIRPORT OBSERVATIONS IN OUR AREA  *****

CITY           SKY/WX    TMP DP  RH WIND       PRES   REMARKS
WALHALLA       FAIR      77  68  73 N13         N/A
GRAFTON AIRPOR FAIR      86  70  58 NE15      29.76F HX  90
VALLEY CITY AR MOCLDY    86  82  89 SE15      29.74F HX 105
CANDO          FAIR      79  66  65 NE15G22   29.82S
CAVALIER APRT  FAIR      82  64  54 NE9       29.80F
GWINNER        CLEAR     84  79  84 SE14G20   29.75S HX  96
SHEYENNE NWR     N/A     87  77  71 SE13      29.95S HX  98
ROLLA          MOCLDY    72  68  88 NE10      29.89R
 ***** THE ABOVE OBSERVATIONS ARE NON NWS ARE NOT QUALITY
       CONTROLLED AND MAY MIS-REPORT RAIN FOR SNOW...
$$

  *****  WEATHER ACROSS NORTHERN MINNESOTA  *****

CITY           SKY/WX    TMP DP  RH WIND       PRES   REMARKS
FLAG ISLAND    SUNNY     79  63  57 NE5       29.84F
WARROAD        NOT AVBL
ROSEAU         MOSUNNY   84  72  65 NE9       29.82S
HALLOCK        MOSUNNY   86  64  48 NE9       29.78F
THF RVR FALLS  MOSUNNY   88  75  66 SE7       29.78F HX  97
BAUDETTE       MOSUNNY   88  69  53 N8        29.83F HX  92
WASKISH        SUNNY     88  73  62 CALM      29.83F HX  96
CROOKSTON      MOSUNNY   90  73  58 S8        29.77F HX  98
$$
  *****  WEATHER ACROSS CENTRAL AND WEST MINNESOTA  *****

CITY           SKY/WX    TMP DP  RH WIND       PRES   REMARKS
FOSSTON        MOSUNNY   88  72  58 CALM      29.82F HX  94
BEMIDJI        PTSUNNY   88  74  63 S8        29.83S HX  96
PARK RAPIDS    SUNNY     90  73  57 S16       29.83F HX  98
ELBOW LAKE     MOCLDY    85  76  73 S20       29.81R HX  94
WADENA         MOSUNNY   88  75  66 SE16      29.83S HX  97
DETROIT LAKES  SUNNY     90  73  58 S17       29.81F HX  98
MOORHEAD       MOSUNNY   90  79  70 S14       29.76S HX 105
FERGUS FALLS   PTSUNNY   88  72  58 S15       29.79R HX  94
MORRIS MN      PTSUNNY   84  77  79 S7G16     29.83R HX  94
STAPLES        MOSUNNY   90  73  58 SE8       29.84S HX  98
$$
  *****  WEATHER ELSEWHERE ACROSS MINNESOTA  *****

CITY           SKY/WX    TMP DP  RH WIND       PRES   REMARKS
DULUTH         MOSUNNY   88  72  58 S14       29.89F HX  94
INTRNTL FALLS  MOSUNNY   88  71  57 S6        29.83F HX  94
ELY            SUNNY     90  70  51 SW6       29.89S HX  95
CLOQUET        MOSUNNY   88  70  55 S8        29.89S HX  92
WHEATON        CLOUDY    81  75  83 SE13      29.79F
BRAINERD       MOSUNNY   88  74  63 S17       29.85F HX  96
HIBBING        SUNNY     89  71  55 VRB6      29.87F HX  95
ALEXANDRIA     SUNNY     89  74  60 S16G26    29.84F HX  98
SAINT CLOUD    MOSUNNY   92  74  55 S17G23    29.83F HX 101
MINNEAPOLIS    PTSUNNY   91  74  57 S16       29.86F HX 100
$$

  *****  WEATHER ACROSS SOUTH DAKOTA  *****

CITY           SKY/WX    TMP DP  RH WIND       PRES   REMARKS
SIOUX FALLS    CLOUDY    84  76  76 S14       29.81F HX  93
BROOKINGS      NOT AVBL
WATERTOWN      CLOUDY    84  75  74 S17       29.81F HX  92
HURON          MOSUNNY   89  76  65 SE14G24   29.73S HX 100
SISSETON         N/A     85  78  80 S17G25    29.72F HX  96
ABERDEEN       PTSUNNY   88  76  67 S18G29    29.72R HX  99
MITCHELL       PTSUNNY   92  79  65 SE18      29.75F HX 108
PIERRE         SUNNY    103  62  26 NW16G25   29.70R HX 105
MOBRIDGE       SUNNY     91  76  61 S13       29.68F HX 103
RAPID CITY     MOSUNNY   91  58  32 E6        29.86F HX  90
$$

  *****  SOME WEATHER IN NEARBY STATES *****

CITY           SKY/WX    TMP DP  RH WIND       PRES   REMARKS
GLASGOW MT     PTSUNNY   79  54  41 N12       29.92F
GREAT FALLS MT MOSUNNY   80  50  34 SW8G18    29.95F
CHEYENNE WY    MOSUNNY   89  41  18 SW16G32   30.18F
SCOTTSBLUFF NE SUNNY    100  46  16 NW13      30.00F HX  96
OMAHA NE       MOSUNNY   95  74  50 S16       29.84S HX 105
DES MOINES IA  MOSUNNY   92  75  57 S18G25    29.89F HX 103
DAVENPORT IA   SUNNY     85  69  58 S12       30.02S
CHICAGO IL     SUNNY     85  62  46 SW12      30.06S
EAU CLAIRE WI  MOSUNNY   90  72  55 S15       29.92F HX  97
LA CROSSE WI   PTSUNNY   90  70  51 S14       29.94F HX  95
$$

  *****  SOME NATIONAL WEATHER *****

CITY           SKY/WX    TMP DP  RH WIND       PRES   REMARKS
LA GUARDIA NY  MOSUNNY   83  61  47 S9        30.13S
RALEIGH NC     CLOUDY    77  73  88 E6        30.14R FOG
ATLANTA GA     CLOUDY    81  71  71 S9        30.07S
NEW ORLEANS LA MOSUNNY   89  70  53 NW8       30.00F HX  94
OKLAHOMA CITY  MOSUNNY   95  72  47 S12G20    30.00F HX 103
ALBUQUERQUE NM MOSUNNY   91  44  19 SW9       30.19F
SALT LAKE CITY MOSUNNY   94  32  11 S21G30    30.03F
LOS ANGELES CA MOSUNNY   74  60  61 W20       30.05F
BOISE ID       CLOUDY    79  54  41 SE12      30.02F
SEATTLE WA     MOSUNNY   70  48  45 W10       30.04S
$$

*** WEATHER ACROSS MANITOBA...SASKATCHEWAN AND ONTARIO ***
                ***ONTARIO***

CITY           SKY/WX    TMP DP  RH WIND       PRES   REMARKS
GERALDTON      MOSUNNY   84  63  48 W12       29.87R
THUNDER BAY    MOSUNNY   90  72  55 S14       29.85S HX  96
SIOUX LOOKOUT  PTSUNNY   82  63  51 NW7       29.87S
TORONTO        MOSUNNY   81  61  50 SE8       30.10F
BIG TROUT LK   SUNNY     73  54  49 NW17G23   29.73R
PICKLE LAKE    MOSUNNY   81  52  36 W15G29    29.83R
DRYDEN         MOSUNNY   84  59  42 W10       29.87S
KENORA         PTSUNNY   81  63  54 SW3       29.88F
$$
                *** MANITOBA***

CITY           SKY/WX    TMP DP  RH WIND       PRES   REMARKS
BRANDON        LGT RAIN  73  64  73 NE8       29.89R
DAUPHIN          N/A    N/A N/A N/A MISG        N/A
ISLAND LAKE    PTSUNNY   72  48  43 W14       29.80R
PILOT MOUND      N/A     75  63  64 NE14        N/A
THE PAS        CLOUDY    73  45  35 NW3       29.88R
THOMPSON       LGT RAIN  59  59 100 N10       29.82R
WINNIPEG       CLOUDY    81  64  57 N10G18    29.84F
LYNN LAKE      PTSUNNY   61  52  72 N9        29.91R
CHURCHILL      PTSUNNY   48  46  93 N16       29.81R
GILLAM         CLOUDY    54  50  87 NW20      29.78R
$$
                ***SASKATCHEWAN***

CITY           SKY/WX    TMP DP  RH WIND       PRES   REMARKS
ESTEVAN        CLOUDY    70  64  83 E6        29.93R
KINDERSLEY     PTSUNNY   70  55  60 N6        29.93S
LLOYDMINSTER   PTSUNNY   70  50  49 S5        29.95R
PRINCE ALBERT  PTSUNNY   72  50  46 NW8       29.93R
REGINA         PTSUNNY   64  57  77 VRB2      29.96R
YORKTON        MOSUNNY   70  57  64 SW5       29.94R
N. BATTLEFORD  PTSUNNY   70  54  56 CALM      29.96S
LA RONGE       MOSUNNY   73  41  31 W7        29.92R
SASKATOON      MOSUNNY   72  52  49 N6        29.95S
SWIFT CURRENT  SUNNY     70  59  68 SE7       29.92F
$$
NOTE: THESE ARE AUTOMATED STATIONS WITH LIMITED QUALITY CONTROL
      "FAIR" INDICATES FEW OR NO CLOUDS BELOW 12,000 FEET WITH NO
      SIGNIFICANT WEATHER AND/OR OBSTRUCTIONS TO VISIBILITY.
      SKY/WX - SKY CONDITION AND SIGNIFICANT WEATHER.
      TMP - AIR TEMPERATURE.    DP   - DEWPOINT TEMPERATURE.
      RH  - RELATIVE HUMIDITY.  PRES - PRESSURE.
      HX  - HEAT INDEX.         WCI  - WIND CHILL INDEX.
$


USA.gov is the U.S. government's official web portal to all federal, state and local government web resources and services.